Wind_Speed
42 42 43 44 44 43 44 44 45 45 45 45 44 44 44 43 43 43 43 44 45 45 46 47 48 49 49 50 50 50 51 51 52 54 54 54 53 53 54 55 56 58 61 64 66 69 70 70 70 68 65 64 63 61 62 60 54 52 51 50 54 59 62 61 59 59 57 56 56 52 48 49 48 45 43 42 41 39 37 38 38 36 35 36 36
43 43 44 44 43 43 44 44 45 45 46 46 45 45 45 45 44 44 44 44 46 47 48 49 49 50 51 51 51 52 52 52 52 53 54 54 55 54 54 55 57 57 59 60 63 66 67 69 71 71 68 65 64 62 62 63 59 55 53 52 53 55 58 61 61 60 59 58 56 52 52 54 51 47 45 44 43 41 40 41 39 37 37 37 37
43 44 45 45 45 45 45 45 46 46 47 47 46 46 46 46 46 45 45 45 46 48 50 51 51 52 53 53 53 53 53 54 54 54 54 54 55 55 55 55 56 58 59 59 60 62 65 66 68 70 71 68 67 65 63 62 59 56 54 54 55 54 54 57 60 61 63 62 58 55 57 57 53 49 48 46 45 44 43 43 41 40 40 39 37
44 45 46 46 47 47 47 47 48 48 48 48 47 47 47 47 47 47 47 47 47 48 50 52 53 54 55 55 56 56 56 56 56 55 55 55 55 55 56 55 56 57 59 59 59 60 62 64 65 67 69 70 69 67 65 62 60 59 57 57 58 57 54 53 54 58 63 63 61 61 60 58 55 53 50 48 47 46 45 44 43 43 43 41 39
45 46 46 47 47 48 48 49 50 50 49 49 48 48 48 48 48 48 48 48 49 49 50 52 54 55 56 57 57 57 57 57 57 57 57 56 56 56 56 57 56 57 59 60 60 60 60 61 62 64 66 68 70 69 67 64 62 62 61 60 60 60 57 54 52 56 61 61 60 62 62 61 58 55 52 50 49 47 45 44 44 44 43 42 41
44 45 45 46 46 47 48 49 50 50 50 49 48 48 48 49 49 49 49 49 49 50 50 51 53 55 57 58 59 59 58 58 58 58 58 58 57 57 57 58 58 58 59 59 61 61 60 60 61 62 63 65 68 69 69 67 66 65 64 61 61 61 60 57 55 57 59 57 57 59 61 61 59 56 54 53 51 49 47 46 45 44 43 42 42
43 43 44 45 45 46 47 48 48 49 49 48 48 48 49 50 50 50 51 51 51 51 51 52 53 54 56 58 60 60 60 59 59 59 59 59 58 58 58 58 59 59 59 59 61 62 62 61 61 61 62 62 64 67 69 69 67 67 66 63 61 60 59 57 55 56 58 56 55 57 57 57 57 55 55 54 52 49 47 46 45 44 43 42 42
43 43 44 44 45 46 46 47 48 48 48 48 48 48 49 50 51 51 51 51 51 52 52 52 53 54 55 57 60 61 61 60 60 60 59 59 59 59 59 59 59 60 59 59 61 62 62 63 62 61 60 60 61 64 67 69 68 67 67 65 62 60 60 58 55 57 58 56 56 57 55 53 54 53 52 51 49 46 45 45 45 44 43 43 43
43 44 45 45 46 46 47 47 48 48 48 48 49 49 50 51 51 52 52 52 52 52 52 53 53 54 55 57 59 61 62 62 61 61 61 60 60 60 59 60 59 59 60 59 60 62 63 64 64 63 61 60 60 61 64 67 68 67 65 64 63 61 62 60 58 59 58 54 55 57 54 51 51 50 49 48 46 45 45 46 46 45 44 44 44
44 45 46 47 47 47 47 47 48 48 49 49 50 50 51 52 52 53 53 53 53 53 54 54 54 54 55 56 58 60 62 63 62 63 62 62 61 61 60 60 59 59 59 59 60 61 62 64 64 64 63 62 60 60 62 65 68 68 65 64 64 63 63 61 60 61 59 52 52 54 51 49 48 47 47 47 46 46 47 47 46 45 44 44 43
45 46 46 47 48 48 48 48 49 49 50 50 50 51 52 52 52 52 52 53 54 54 54 55 55 56 56 56 58 59 62 63 63 63 63 63 62 61 61 60 59 58 58 58 59 60 62 64 64 65 66 64 62 61 61 63 65 67 67 65 65 65 64 62 61 63 59 51 48 49 49 47 47 46 47 47 45 45 46 46 45 43 42 42 42
44 45 46 47 48 48 49 49 49 50 51 51 51 51 52 52 52 52 52 52 53 54 55 55 55 56 57 57 58 59 61 62 63 63 64 64 63 62 61 60 59 57 56 56 58 59 62 64 64 65 66 66 64 62 62 62 63 66 67 66 65 66 65 62 61 63 61 53 47 48 48 47 47 47 47 46 45 45 46 45 42 41 41 41 41
43 45 46 47 47 48 48 48 49 50 50 51 52 52 52 52 52 52 52 53 53 54 55 55 56 56 57 58 58 59 60 61 62 63 63 64 63 62 61 60 59 57 55 55 55 57 60 63 64 65 66 67 66 64 63 63 63 64 66 65 65 65 64 62 62 63 61 54 50 51 50 48 48 48 47 46 45 45 45 42 40 40 42 41 41
43 44 45 46 47 47 47 47 48 48 49 49 50 51 51 51 52 52 53 53 53 54 54 55 55 56 57 58 58 59 59 60 61 62 63 64 64 63 61 60 59 57 55 54 54 54 57 60 62 64 66 67 67 66 65 64 63 64 65 65 65 64 63 61 61 61 59 56 53 54 53 51 50 49 48 48 46 45 43 42 41 43 43 41 42
43 44 44 45 46 46 46 46 46 47 47 47 47 48 48 49 50 52 53 53 54 54 54 54 55 55 56 57 57 58 58 59 60 61 62 63 64 63 61 60 59 57 54 53 53 53 54 57 58 61 64 65 66 67 67 66 65 65 65 65 66 66 65 63 61 60 60 57 56 56 55 53 51 50 49 48 44 42 44 44 43 44 44 43 42
42 43 44 45 45 45 45 45 45 46 46 46 46 47 48 49 51 52 53 53 54 54 54 54 54 54 55 56 56 55 55 56 58 60 61 63 64 63 61 60 59 57 54 53 53 53 53 54 54 56 59 62 65 67 68 68 67 66 66 66 68 69 68 65 62 62 61 59 58 59 57 54 51 49 49 46 41 42 45 44 42 43 46 45 43
40 42 44 45 45 45 44 44 45 45 45 45 46 48 49 50 51 52 52 52 53 54 54 53 52 52 52 53 53 52 52 53 56 57 59 61 62 62 61 60 59 58 56 54 53 53 53 52 51 52 55 57 60 64 67 69 69 68 67 68 70 70 69 66 64 62 61 61 61 60 57 54 52 49 47 45 43 45 47 45 42 42 43 43 42
41 42 44 45 45 44 44 44 44 44 44 45 47 48 49 49 49 50 50 51 51 51 50 49 47 46 47 48 48 48 49 50 52 54 56 59 61 60 60 59 59 58 56 54 53 52 52 50 49 50 51 52 56 61 66 68 70 69 68 68 69 70 69 67 65 64 62 61 61 60 58 57 54 51 49 49 48 48 49 48 45 42 41 41 40
41 42 43 44 43 43 43 42 42 42 44 45 46 46 46 46 46 46 47 47 46 45 45 43 41 40 41 42 43 44 45 46 47 49 52 55 57 57 57 57 57 56 55 53 51 51 51 49 48 48 48 49 52 57 63 68 70 69 68 67 68 69 67 66 66 65 62 60 59 60 62 61 55 50 50 52 53 52 49 46 44 44 43 41 41
39 41 42 42 41 41 41 40 41 42 44 43 43 43 43 42 42 42 43 44 44 44 44 42 39 38 39 39 38 39 40 41 42 44 47 50 52 53 54 54 53 53 52 51 50 51 50 49 48 47 48 48 48 52 59 67 69 69 69 67 67 67 66 65 66 65 62 60 60 60 64 63 55 49 49 53 55 52 48 45 44 45 45 44 44
38 39 40 39 39 39 39 40 41 42 42 40 39 39 39 39 40 41 43 44 44 45 44 42 40 38 38 37 36 35 36 36 38 40 43 45 46 47 48 49 48 48 48 48 49 50 49 49 48 48 47 46 46 49 56 65 69 69 69 67 65 65 65 65 65 64 62 61 60 59 61 60 54 49 51 53 52 50 48 47 45 43 44 47 48
37 38 38 37 37 37 38 40 41 40 39 38 37 36 38 39 41 42 43 42 42 43 42 40 39 38 37 37 35 34 33 34 35 37 39 39 39 38 39 40 41 43 45 47 49 49 48 47 45 44 43 45 46 48 54 62 69 70 70 68 65 65 65 64 65 64 63 61 59 58 60 56 49 48 50 51 50 49 49 47 45 44 46 50 50
35 36 36 35 35 36 38 39 39 38 36 35 34 35 37 40 41 43 43 41 39 38 36 35 35 35 36 37 36 35 35 35 37 38 38 37 36 34 33 34 37 40 44 47 48 47 45 43 41 41 43 46 48 49 52 60 68 70 70 69 66 64 66 66 65 64 63 61 58 58 57 51 46 47 48 48 48 46 45 46 46 47 51 55 54
33 33 33 33 33 36 38 38 36 35 34 33 33 35 37 38 40 42 42 38 35 33 31 29 30 31 33 36 38 38 38 38 40 41 41 40 38 36 35 35 36 40 44 46 46 45 43 41 41 44 47 49 50 50 51 58 66 70 70 69 66 65 66 67 66 64 63 61 57 56 53 48 47 48 48 46 45 44 45 48 48 48 52 55 54
31 31 31 31 33 36 36 35 34 33 32 32 33 34 35 36 39 40 38 34 30 28 26 25 25 26 27 29 33 38 40 41 41 43 44 43 41 40 40 39 39 41 44 45 45 44 43 43 46 48 49 50 51 52 52 56 64 69 70 68 66 65 66 67 66 65 64 61 58 56 53 51 50 49 45 45 46 48 50 51 50 49 50 50 49
30 29 29 30 33 34 34 32 31 31 31 33 33 33 34 35 37 37 34 29 26 25 23 21 20 20 21 23 25 29 35 40 42 42 43 44 44 44 44 45 45 46 47 47 47 46 45 47 50 51 51 52 53 53 52 54 61 68 70 68 66 65 66 67 66 65 64 61 59 57 55 54 53 50 47 48 50 51 52 53 52 50 49 48 47
28 27 28 31 33 32 30 29 29 30 31 32 32 32 33 36 37 35 31 26 23 22 19 16 16 18 19 19 20 22 25 32 38 41 42 43 44 45 46 47 48 50 50 51 50 49 50 51 52 52 53 54 54 53 53 54 60 67 69 67 65 66 67 67 66 65 62 59 58 56 54 54 54 52 51 52 53 52 53 53 52 51 49 47 45
26 26 28 31 31 29 28 28 28 29 30 30 30 30 31 35 35 32 28 25 21 18 16 15 15 16 16 14 15 17 19 24 30 36 40 42 43 45 46 48 49 50 50 50 50 50 51 52 52 53 54 55 54 53 53 55 61 67 68 66 65 66 67 67 65 63 60 58 57 56 53 52 53 52 54 56 56 53 52 50 49 47 45 43 42
24 26 28 29 28 27 26 27 27 28 28 29 29 29 29 32 32 28 24 23 21 19 19 18 17 15 14 11 10 11 14 19 25 30 36 41 43 43 44 45 46 47 47 47 47 49 50 51 52 52 53 53 52 51 51 55 62 66 65 64 64 65 66 66 63 59 56 56 58 57 53 51 52 53 55 56 54 52 50 48 45 43 41 39 38
24 26 28 28 27 25 25 25 26 26 27 28 29 29 29 30 29 23 19 20 21 20 19 18 15 14 13 11 10 10 12 15 19 24 31 38 41 41 41 42 42 43 43 44 45 48 49 50 50 51 51 50 48 48 50 54 60 63 63 62 63 63 64 63 60 56 53 54 58 60 56 53 54 56 54 51 49 47 46 43 41 39 37 36 35
24 26 28 27 26 25 24 24 24 25 26 26 28 28 28 28 27 20 16 17 19 18 16 15 14 14 14 12 10 11 12 11 12 18 26 33 37 37 37 38 40 41 42 43 44 45 47 48 48 48 47 46 45 45 48 52 57 60 60 60 61 61 60 59 57 55 54 54 57 58 56 54 55 55 52 48 45 43 41 38 37 36 34 33 32
24 26 27 27 25 24 23 23 23 24 25 26 27 27 26 27 25 18 15 16 16 16 14 12 10 12 14 13 12 11 10 9 10 15 21 28 32 33 34 37 39 39 40 40 41 42 44 45 45 45 43 41 40 42 45 51 55 57 58 59 59 59 58 57 56 55 54 53 55 56 56 56 55 52 47 45 42 40 37 36 35 33 32 31 30
23 25 26 25 24 23 22 21 22 22 23 25 26 26 24 24 23 18 15 15 13 12 10 7 5 6 9 11 12 11 13 14 10 11 14 21 26 28 31 33 34 34 36 37 38 40 42 42 42 41 38 36 36 40 45 51 55 56 57 59 59 58 58 57 56 53 52 54 56 58 60 59 54 49 45 43 41 38 36 34 33 31 30 29 30
22 23 24 23 23 22 21 20 20 21 21 23 25 25 23 21 20 18 15 13 11 9 8 6 5 4 5 7 10 12 15 16 13 10 13 19 22 24 27 29 30 30 32 34 35 37 38 38 38 37 36 37 40 43 46 50 53 55 56 58 58 56 57 57 56 54 55 59 62 63 62 58 52 48 45 42 38 36 34 32 31 29 28 28 30
21 22 22 21 21 21 19 19 19 19 20 21 22 23 22 19 18 18 15 11 9 9 9 7 6 4 3 8 11 10 12 14 14 13 15 18 21 22 24 26 28 29 29 30 31 32 33 33 32 32 36 41 44 44 45 48 50 52 54 56 57 57 57 57 58 58 60 61 62 60 57 53 50 47 44 39 35 33 32 29 28 27 27 27 28
21 21 20 19 19 19 18 18 17 17 18 19 20 21 21 18 16 17 13 8 6 6 8 8 8 4 3 8 10 9 10 12 14 14 16 19 21 22 24 26 27 27 26 26 27 29 31 33 33 33 38 42 43 43 46 48 49 51 54 56 58 59 58 57 57 58 59 58 57 53 48 46 45 43 39 35 32 29 27 25 25 26 26 26 26
20 20 19 18 18 18 17 17 16 15 15 16 17 18 19 16 15 15 13 8 4 1 2 4 6 5 2 2 3 6 8 12 13 13 14 18 20 22 25 26 26 26 25 25 26 25 26 28 30 32 38 43 44 44 47 49 51 52 53 55 55 55 53 52 53 55 55 54 52 50 46 45 43 39 35 31 28 26 24 23 25 26 27 27 28
17 18 18 18 18 18 17 16 15 14 14 14 15 15 16 15 14 14 14 10 4 2 2 0 5 8 5 4 7 9 9 12 13 11 13 17 19 21 24 25 26 28 29 28 27 26 25 27 28 30 36 43 45 44 46 50 51 49 48 50 51 50 50 51 52 51 50 49 49 48 46 43 39 34 31 29 27 25 25 26 28 29 29 29 29
14 15 16 17 17 17 17 16 14 13 13 13 13 13 14 14 13 12 14 12 7 4 3 3 8 12 7 1 3 9 11 12 12 11 14 16 17 19 22 25 29 33 32 25 22 24 27 30 30 30 35 41 43 43 45 49 49 46 44 45 47 49 49 49 47 45 43 42 42 41 39 36 33 31 29 28 26 26 27 29 29 28 28 27 27
13 14 15 16 16 16 16 16 14 13 12 12 12 11 12 12 12 11 12 13 11 6 5 5 6 11 10 7 4 7 14 14 13 14 16 16 16 20 23 26 30 35 33 26 20 19 23 26 25 25 29 34 38 41 44 45 42 41 41 42 44 46 47 45 42 39 37 36 34 33 32 32 31 30 28 26 26 27 28 27 25 24 23 23 24
13 13 14 15 16 15 15 15 14 13 12 11 11 11 11 11 11 11 10 11 12 10 8 8 7 6 5 4 3 11 18 17 16 17 17 17 19 22 24 26 29 32 33 30 24 17 16 18 20 22 27 31 34 38 41 40 38 39 41 42 43 44 43 42 39 36 32 30 30 30 31 32 31 28 26 26 27 28 27 24 22 21 22 23 24
12 12 13 14 14 13 13 14 14 13 11 11 11 10 10 10 9 10 10 9 11 12 11 11 10 8 6 5 8 16 20 20 18 17 17 17 20 22 24 27 30 31 32 32 27 18 13 14 18 23 29 34 36 36 36 36 37 39 40 41 43 43 42 39 36 31 27 26 27 28 29 29 27 25 25 27 29 28 25 23 23 23 24 25 26
11 11 12 13 12 11 11 13 14 13 12 11 11 10 10 9 8 8 9 9 8 10 11 12 12 10 9 10 13 17 20 22 21 19 17 16 18 20 22 26 29 30 30 31 28 22 17 16 17 24 34 39 39 37 37 37 37 38 38 40 41 40 39 37 33 28 25 25 25 25 25 25 24 25 26 27 28 27 25 24 25 25 26 28 30
11 10 10 10 10 10 10 12 13 13 12 12 12 11 10 9 8 7 7 7 7 8 9 11 12 12 12 12 14 16 19 21 23 22 21 19 18 19 20 22 26 29 28 26 24 24 23 20 18 26 37 41 38 37 38 38 37 36 36 36 37 37 36 35 31 27 24 24 25 25 25 25 25 26 27 28 28 28 28 27 27 27 28 30 32
10 8 8 9 8 9 10 11 12 13 12 12 12 12 11 10 8 6 5 6 6 6 7 8 10 11 12 13 13 14 14 16 19 21 22 21 21 21 21 21 24 28 28 25 22 23 24 22 21 27 36 39 36 36 37 37 35 34 33 34 35 35 34 32 29 25 24 25 26 27 28 27 26 26 26 27 29 30 30 30 29 29 31 33 34
9 8 7 8 8 8 9 10 11 12 12 12 11 12 12 11 9 7 6 4 4 4 5 5 6 8 10 11 12 13 13 14 14 16 19 21 22 23 23 23 24 25 26 26 25 24 25 25 25 27 32 34 33 32 34 35 35 33 30 30 31 30 28 26 25 24 24 24 25 26 27 26 25 25 25 26 28 30 31 32 32 33 34 35 35
9 8 7 7 7 8 8 9 10 11 12 11 11 12 12 11 10 8 7 5 3 2 2 3 3 4 6 8 10 12 13 14 15 15 17 19 22 24 25 26 26 26 27 27 27 26 27 28 27 27 28 30 29 28 29 32 33 31 28 26 25 24 24 24 24 23 23 23 22 23 23 24 24 25 25 27 29 31 33 34 35 36 36 36 36
8 8 7 6 6 6 6 7 7 9 10 10 11 11 12 12 11 10 8 6 4 2 1 1 1 1 2 4 6 9 11 13 15 16 16 17 19 21 23 24 25 26 27 27 27 27 29 29 28 26 26 27 27 27 29 30 30 28 27 25 25 24 24 24 23 23 23 23 23 23 24 24 26 27 27 29 31 32 33 34 36 36 36 36 36
7 6 6 6 5 5 5 5 5 6 7 8 9 9 11 11 12 11 10 8 6 4 2 2 2 2 3 3 4 5 8 10 13 15 16 17 17 18 19 20 21 22 23 24 25 26 27 27 27 28 28 27 27 28 29 29 29 28 27 27 27 27 27 26 26 25 26 26 26 26 26 26 27 28 29 30 31 32 33 34 35 35 36 35 35
7 6 6 6 5 5 4 4 4 4 5 6 6 7 8 9 10 11 11 10 9 7 4 3 3 3 4 4 5 5 6 7 9 12 14 15 16 17 18 18 19 19 19 20 21 22 23 25 26 27 28 28 28 28 28 28 28 28 28 28 28 28 28 29 29 29 29 28 28 28 28 28 28 29 30 31 32 33 34 34 34 34 34 33 32
7 7 7 6 6 5 4 4 4 3 4 4 5 5 6 7 9 10 11 11 10 9 7 5 4 4 4 5 6 6 6 7 7 9 10 12 14 15 17 18 18 18 19 19 20 20 21 23 24 25 27 27 27 27 27 27 27 28 28 28 29 29 30 30 30 29 29 28 28 29 29 30 30 31 31 32 33 33 33 33 33 32 32 31 31
Wind_Direction
276 276 275 275 274 273 272 270 269 268 267 266 266 265 265 265 265 263 262 262 261 261 261 260 260 259 258 257 256 255 255 254 254 252 250 249 247 247 246 246 245 242 240 239 238 237 236 237 237 236 237 238 238 240 242 240 237 232 231 236 239 238 237 238 240 241 242 243 244 245 248 251 251 252 254 256 257 258 260 263 265 266 267 267 268
276 276 276 276 276 275 274 272 271 269 268 267 266 266 265 265 264 264 263 261 260 260 260 259 260 259 259 258 257 256 256 254 253 253 252 250 248 247 246 245 245 244 242 240 238 238 236 236 236 236 236 237 237 238 240 241 239 236 236 240 243 241 239 238 239 241 243 243 245 246 247 249 251 252 255 256 257 258 259 262 264 266 266 268 270
276 276 276 277 277 276 276 275 273 271 270 269 268 267 266 265 264 264 264 263 261 259 258 258 258 258 259 259 258 257 256 255 254 253 252 251 250 248 246 245 245 245 244 242 240 239 238 236 235 236 236 236 237 237 237 239 240 238 236 238 242 243 241 238 238 241 243 243 244 245 246 248 249 251 253 255 257 258 259 261 264 265 267 269 271
275 275 276 276 277 277 276 275 274 272 271 270 269 268 267 266 265 264 264 263 262 260 259 257 257 256 257 257 258 257 256 256 255 254 253 252 250 249 248 246 245 245 244 244 242 239 238 237 235 236 236 236 236 236 236 236 237 236 234 234 238 243 244 242 239 241 243 243 242 244 245 247 248 250 252 254 256 258 260 262 264 264 266 268 270
275 276 276 276 276 276 276 275 274 273 272 271 270 269 268 267 267 266 264 264 263 262 260 258 257 256 255 255 256 257 256 255 255 255 254 252 251 250 250 248 246 245 245 244 243 241 239 238 236 236 235 235 235 235 235 235 235 235 234 233 236 240 244 246 244 244 244 242 241 242 245 246 248 250 251 253 255 258 260 262 263 264 266 268 269
276 277 277 277 277 276 275 274 273 273 272 272 271 270 269 268 267 266 265 264 264 263 261 260 258 256 255 255 255 255 256 255 254 254 254 253 251 250 250 250 248 246 245 244 244 242 240 238 236 236 235 234 234 234 235 234 235 235 234 234 237 239 243 246 247 247 246 244 242 242 243 245 247 249 251 252 254 257 259 261 261 263 265 267 268
279 279 279 279 278 276 275 274 274 273 273 272 272 271 269 268 267 267 266 266 265 264 263 261 260 258 256 255 254 254 255 254 254 253 253 252 251 251 250 250 249 248 246 245 244 243 240 238 237 235 234 233 232 233 234 233 233 234 234 234 237 239 241 244 245 246 247 247 245 242 242 244 246 248 250 252 254 256 258 260 261 262 264 266 268
281 282 282 281 280 279 277 276 275 275 274 273 272 271 270 269 268 268 268 267 266 265 264 263 261 260 258 256 254 253 253 253 253 253 252 252 251 251 250 250 249 249 247 245 244 243 241 239 237 235 234 233 232 233 234 233 233 233 233 233 235 238 239 241 245 247 247 248 246 242 240 243 246 248 250 253 255 257 258 259 259 260 262 264 267
282 283 282 282 281 280 279 278 277 276 275 274 273 272 271 270 270 270 270 269 268 267 266 264 262 261 259 257 255 254 252 252 252 252 252 252 251 251 250 249 249 249 248 245 244 243 241 239 237 235 233 232 231 231 233 233 233 232 232 231 233 236 238 238 242 246 246 246 244 240 241 244 247 249 252 254 255 255 255 256 257 259 261 263 265
282 282 282 282 281 281 280 279 278 277 276 275 274 273 272 272 272 272 271 271 270 268 267 266 264 262 260 259 256 255 253 251 251 252 252 252 251 250 250 249 248 248 248 246 244 243 241 239 237 235 233 231 230 230 231 233 233 232 232 231 230 234 237 237 238 241 242 241 239 239 241 245 247 250 252 252 252 252 253 256 258 260 261 263 266
282 282 282 282 281 280 280 278 278 277 276 275 275 274 274 273 273 273 272 271 270 269 267 266 265 264 262 260 258 255 253 252 251 251 251 251 251 250 249 249 248 247 246 246 244 243 241 240 237 235 233 231 230 229 230 231 232 232 231 230 229 231 234 235 236 238 238 237 237 240 242 244 246 250 251 251 251 252 254 256 258 259 261 264 266
283 283 282 282 281 280 279 278 277 277 276 276 275 275 275 274 274 274 274 273 272 270 269 268 266 265 263 262 260 257 254 252 251 251 250 249 249 249 249 248 247 246 245 244 243 242 241 240 237 235 234 232 230 229 229 230 231 231 230 229 228 229 230 233 236 237 236 236 239 242 243 244 248 250 251 251 250 251 253 254 255 257 259 262 263
283 283 282 281 280 279 278 278 277 276 276 276 276 275 275 275 275 275 275 275 274 273 272 270 268 266 264 262 260 258 255 253 252 250 249 248 247 247 247 247 246 245 244 243 242 241 240 239 238 236 234 232 230 229 229 229 229 230 229 227 227 228 229 232 234 233 233 236 238 240 242 245 247 248 248 248 249 250 252 252 253 255 257 258 260
283 283 283 282 280 279 278 278 277 277 277 277 277 276 276 276 276 277 277 277 276 275 274 272 270 268 265 263 261 259 257 253 251 249 248 247 246 245 245 245 245 244 243 243 241 240 239 238 237 236 234 232 230 229 229 229 229 229 228 225 224 226 228 231 232 229 230 235 237 240 243 244 244 243 244 246 247 247 247 248 251 254 256 256 258
283 283 283 283 282 281 280 279 278 278 279 279 280 280 279 279 279 279 279 279 278 277 275 273 271 268 266 264 261 259 257 253 250 248 246 245 245 244 244 243 243 243 243 242 241 238 237 237 236 236 235 232 230 229 229 229 228 228 227 224 222 223 224 227 229 228 230 234 237 239 242 243 242 243 245 246 246 245 245 248 250 252 252 253 255
284 284 284 284 284 283 283 282 281 281 282 283 283 283 283 283 283 282 282 281 280 278 276 273 271 269 266 264 261 258 255 252 249 247 245 245 244 243 243 242 242 243 242 241 240 236 234 234 234 235 235 233 229 227 227 228 227 227 227 223 220 220 222 224 226 227 228 232 235 238 241 241 241 243 244 242 239 241 245 248 249 250 251 254 256
285 286 286 285 285 285 285 284 283 284 285 285 285 285 285 285 285 284 283 281 280 278 276 274 272 270 266 263 259 255 252 250 248 246 245 245 244 243 243 242 242 242 242 241 238 234 230 230 231 233 235 233 230 227 225 226 226 226 226 224 221 220 220 222 224 226 226 229 232 236 238 238 238 239 239 236 234 237 242 245 247 249 252 253 254
286 287 287 286 286 286 286 286 286 286 286 286 287 287 287 286 285 284 282 281 279 277 276 274 272 269 264 260 256 253 249 247 246 245 244 244 243 243 242 241 241 242 242 241 236 230 227 226 227 230 233 232 231 228 224 224 225 225 225 224 221 220 220 221 223 226 227 228 231 233 235 237 236 234 233 233 235 237 240 244 247 248 249 250 250
285 285 286 286 286 286 287 287 287 287 288 288 289 288 287 285 284 282 281 279 278 277 276 275 271 266 261 256 252 249 246 244 243 242 242 243 243 243 242 242 242 241 241 239 233 226 223 223 223 227 230 231 231 229 225 222 223 223 224 223 222 220 220 221 223 226 228 230 232 233 235 236 233 229 230 234 238 238 240 244 247 247 247 247 249
286 285 285 285 286 286 286 287 288 289 290 290 289 287 286 285 284 282 280 279 278 279 279 277 274 269 263 257 252 247 243 240 238 238 239 240 241 242 242 242 240 239 237 235 228 222 221 220 220 223 227 229 230 231 227 222 220 221 222 222 221 220 220 221 222 225 228 231 232 233 233 231 227 223 228 236 238 239 241 244 244 245 246 247 248
287 286 285 285 286 286 286 288 290 292 292 291 289 288 287 286 286 283 280 279 280 281 280 279 276 271 265 259 254 248 242 238 235 233 234 236 238 239 240 240 237 234 231 227 222 219 219 219 218 220 225 227 230 232 229 222 219 220 221 221 221 220 219 220 221 224 226 229 230 230 229 227 224 224 230 236 239 239 240 241 241 243 246 247 247
288 287 286 287 286 286 287 291 293 294 293 291 290 290 290 290 288 285 283 283 284 283 281 279 274 269 263 259 255 249 241 238 235 232 231 232 235 237 238 237 234 228 222 219 218 218 219 219 218 220 223 227 230 232 229 224 219 219 219 219 219 218 217 218 220 223 225 227 228 228 227 225 224 227 232 237 239 238 238 239 238 238 241 244 245
288 288 288 287 286 287 291 294 295 294 293 293 294 294 294 292 290 288 288 288 286 284 281 277 271 266 262 259 256 252 245 240 238 236 233 231 231 233 235 234 229 222 217 216 217 219 218 217 218 219 221 225 228 230 230 225 219 218 218 218 218 217 217 218 219 221 224 227 228 227 225 222 223 228 233 237 238 237 239 241 239 236 238 242 246
290 290 288 286 287 292 295 296 295 294 294 295 297 297 295 294 293 292 292 291 288 285 284 279 273 267 262 257 254 252 248 243 239 237 235 233 230 228 230 230 225 218 216 218 219 219 218 218 220 220 220 223 226 229 229 225 220 218 218 217 217 216 216 218 219 220 223 225 225 223 222 221 223 228 232 234 233 231 234 237 238 237 240 243 247
292 291 288 288 292 296 297 296 295 295 296 298 299 298 297 296 296 295 294 292 290 288 286 282 277 272 267 260 254 249 246 243 240 236 234 233 231 227 225 225 223 218 218 220 222 221 220 221 222 223 222 223 226 228 229 226 220 218 217 216 216 216 216 217 219 220 223 224 222 221 222 222 222 224 229 232 231 228 229 232 236 239 242 244 249
293 290 289 293 297 298 297 295 294 295 298 300 301 299 298 299 300 299 297 293 291 289 286 282 280 279 276 270 261 251 244 240 237 234 232 230 229 227 225 223 222 220 221 223 225 225 225 224 225 225 224 224 225 226 227 226 220 217 216 214 214 215 216 217 218 220 223 223 220 220 223 224 221 221 224 229 231 230 230 233 237 240 243 247 252
292 290 292 297 298 298 295 293 293 296 300 302 302 302 302 303 305 305 300 294 290 287 284 285 287 285 281 275 269 260 249 240 234 230 229 228 226 226 225 224 223 223 224 225 226 227 227 227 227 226 224 224 224 224 225 224 219 216 214 213 213 214 215 217 219 220 221 222 220 219 220 222 221 221 222 225 228 230 231 234 238 242 245 250 254
290 292 296 298 297 295 293 292 294 297 301 303 306 306 306 307 310 308 300 291 286 283 284 289 291 291 288 281 270 262 255 246 236 229 225 224 223 223 223 223 224 224 225 226 227 227 227 226 226 224 222 221 222 223 224 222 216 213 212 211 211 213 214 215 217 218 219 220 219 215 214 215 218 221 224 226 228 231 232 235 239 244 248 251 252
291 295 297 297 294 291 290 291 294 298 302 306 308 309 310 313 314 309 297 286 281 282 288 290 287 288 288 278 267 261 253 245 238 230 223 219 218 220 221 221 221 222 223 225 225 224 224 223 221 219 218 218 220 222 224 220 214 211 209 209 211 213 214 215 216 216 217 218 217 212 209 211 216 220 224 226 229 232 235 238 242 246 248 249 250
294 297 298 295 292 289 289 291 295 300 304 308 311 313 315 319 319 309 291 280 279 283 289 288 280 276 275 267 261 256 246 239 235 230 222 216 214 216 218 216 215 215 217 219 220 220 219 217 215 215 215 216 218 221 222 218 212 208 207 207 209 212 215 216 217 218 220 220 215 210 208 210 216 221 224 227 230 234 237 240 244 245 245 246 249
296 299 299 296 292 288 288 292 297 302 306 310 313 317 320 324 322 307 279 274 281 284 286 285 277 268 264 266 265 251 237 234 231 220 212 209 210 212 212 210 208 208 211 214 216 214 211 210 210 211 213 215 218 220 218 213 208 206 205 206 208 212 215 216 217 221 225 221 213 208 208 212 218 222 225 227 230 233 237 240 242 242 243 245 250
297 299 301 300 295 289 289 293 298 304 308 311 315 320 323 327 326 308 273 270 284 287 280 274 269 265 263 266 266 244 210 201 223 222 207 203 205 207 205 204 205 206 208 209 208 207 206 206 207 209 212 216 217 215 211 207 204 203 204 205 208 211 213 215 219 223 223 215 208 206 209 213 217 220 223 226 230 234 239 241 240 240 243 248 253
298 301 303 303 298 292 290 294 299 305 309 312 316 321 325 330 331 315 283 272 282 286 271 248 248 286 288 276 261 231 194 185 213 236 214 201 203 204 203 204 205 206 205 204 203 203 204 206 208 210 211 210 209 207 204 202 201 202 203 205 208 211 213 217 222 220 213 205 204 207 211 214 216 218 222 226 232 236 239 238 238 242 247 252 257
299 302 305 307 303 297 293 295 301 307 311 314 317 321 326 333 336 325 302 285 279 269 244 226 240 286 307 293 264 231 204 198 210 226 212 202 204 204 202 202 202 200 199 199 200 202 205 207 210 210 203 198 199 201 201 200 201 202 204 206 208 211 215 219 220 213 206 204 206 209 212 214 216 219 223 229 234 236 236 237 241 246 251 256 260
302 305 309 311 309 303 298 298 301 308 313 316 319 323 327 336 343 335 319 302 283 255 227 231 257 262 286 295 276 241 215 210 211 211 207 203 202 201 199 197 195 193 193 194 198 203 204 203 205 205 198 192 194 197 198 198 199 202 205 208 209 211 214 215 212 206 204 205 207 210 213 216 218 222 227 231 233 234 236 240 245 249 253 257 261
307 310 313 315 315 311 305 301 302 307 314 319 323 325 328 337 348 347 339 327 301 257 224 238 261 254 277 290 271 235 211 205 200 198 198 195 194 193 190 189 188 186 186 191 197 202 200 194 194 197 194 189 191 194 195 195 198 200 204 207 206 205 206 206 203 202 203 205 208 212 215 217 220 224 227 229 230 233 238 244 247 250 253 257 261
311 315 318 320 322 321 315 308 304 307 313 320 324 327 330 337 351 360 2 358 335 258 213 248 245 206 190 258 216 180 176 173 170 174 179 179 179 180 178 178 179 178 178 181 183 185 188 187 187 190 190 187 189 194 196 197 199 199 199 198 196 196 198 200 201 203 206 209 212 215 217 220 223 225 226 226 229 233 238 243 247 251 256 261 265
313 321 324 324 328 330 326 317 310 307 311 319 325 329 333 338 349 7 17 20 31 106 90 178 188 177 164 133 137 145 149 148 147 157 168 167 168 171 173 175 176 173 172 173 170 169 176 181 182 187 191 191 193 196 198 200 201 199 196 195 194 195 198 201 203 205 208 211 214 217 219 222 223 223 223 225 227 229 233 240 248 255 261 265 267
313 325 329 328 331 335 334 328 320 312 310 316 323 331 337 340 347 6 23 32 49 93 105 126 173 184 196 219 141 154 158 154 151 159 165 164 167 173 174 175 174 172 174 175 167 163 171 179 181 185 191 195 199 201 200 199 199 198 197 198 199 200 202 204 204 206 209 212 215 217 219 220 219 219 221 224 225 229 236 245 253 259 262 264 266
315 324 335 336 335 337 338 336 330 321 314 314 319 329 339 342 345 359 22 39 51 79 117 135 172 195 218 268 281 164 159 160 158 159 160 162 164 168 169 169 172 176 183 188 181 172 177 183 182 181 184 190 196 198 194 192 193 195 196 199 202 204 205 207 208 209 211 213 215 217 217 217 217 218 219 221 225 234 243 251 257 262 264 266 269
314 320 336 343 340 337 339 341 338 331 324 318 318 325 337 344 347 353 13 39 52 67 105 131 146 167 190 247 216 161 158 159 159 159 162 161 158 160 164 169 176 184 190 193 193 195 201 202 197 189 183 182 184 185 185 186 189 192 195 199 202 204 206 208 208 208 209 212 214 214 214 214 214 215 216 219 227 237 246 253 258 262 266 270 272
308 315 331 342 345 342 340 341 340 338 333 328 324 325 332 340 347 351 0 27 51 62 84 113 128 133 133 130 139 149 157 163 166 166 165 160 157 161 166 170 178 187 193 196 199 204 202 196 194 192 188 185 182 182 183 185 187 190 193 197 201 203 204 203 202 204 210 216 215 211 211 213 216 217 219 224 232 241 247 253 258 263 267 271 275
302 311 323 336 347 347 338 336 339 341 339 336 332 331 330 333 342 351 355 10 39 58 73 93 112 126 133 130 126 132 143 154 163 170 174 170 167 169 170 173 180 189 194 200 205 205 191 179 181 187 188 186 186 188 190 190 189 192 194 196 200 203 202 201 204 211 219 219 215 212 214 219 222 222 225 232 241 247 252 256 261 264 268 273 278
301 308 314 325 340 346 339 334 336 339 341 341 339 338 334 330 333 344 353 1 20 45 65 82 98 114 127 133 130 129 133 139 147 157 172 184 189 185 181 183 189 193 196 202 206 202 197 194 191 188 187 186 186 189 192 191 190 193 195 197 201 205 206 208 214 220 221 217 215 216 221 228 232 233 234 238 244 251 257 261 265 269 272 277 282
299 303 303 308 324 341 342 334 330 332 338 341 341 341 340 335 331 333 342 356 9 26 45 68 88 103 115 126 134 138 139 140 142 148 160 176 189 195 197 196 195 197 202 206 201 194 194 196 189 184 186 187 186 186 189 191 194 196 198 200 203 206 209 214 220 224 223 222 222 224 228 235 240 242 241 242 248 254 259 264 268 273 277 280 284
302 303 301 303 316 331 336 332 326 327 333 338 340 341 342 341 338 332 327 338 4 22 31 46 69 90 105 119 132 142 148 153 154 154 158 165 174 186 195 199 199 202 206 205 196 188 186 183 176 175 181 185 186 189 194 199 199 196 195 199 203 207 212 218 223 226 229 230 231 231 233 236 238 239 242 248 254 258 261 264 269 275 279 281 284
310 308 307 309 316 323 330 330 326 324 328 334 339 341 340 341 343 339 329 322 331 6 42 47 54 74 97 115 130 141 150 157 162 165 167 167 168 174 180 186 193 197 197 193 189 186 183 179 176 176 178 181 183 186 189 192 192 191 193 201 207 211 217 222 226 229 232 233 234 235 236 236 238 240 244 251 256 260 263 267 271 275 278 279 281
315 313 309 308 310 316 325 329 326 324 329 334 338 340 339 340 342 343 339 330 322 312 284 135 114 105 112 124 132 140 150 158 164 169 172 172 171 171 173 177 182 186 184 182 183 185 185 184 185 186 186 186 186 184 182 185 190 196 203 210 215 220 225 227 229 233 235 237 238 239 240 241 244 246 250 254 258 262 266 269 271 273 274 275 276
314 316 315 313 311 314 321 326 324 325 333 339 342 342 340 340 342 344 345 342 335 322 294 244 203 178 173 176 167 155 154 159 165 171 176 177 175 173 174 176 179 181 181 181 182 185 187 189 192 196 198 200 199 197 197 200 206 211 217 222 226 230 232 233 235 238 241 243 244 245 247 249 251 253 256 259 262 264 266 267 268 269 270 272 275
303 308 312 315 315 314 317 323 326 324 326 336 346 350 346 343 344 346 348 347 345 339 324 286 244 213 192 190 195 193 184 176 172 172 176 179 180 178 178 180 181 182 184 187 190 192 195 196 198 200 202 205 207 209 211 214 218 221 225 228 232 234 236 239 242 245 247 248 248 248 250 252 254 255 257 259 260 261 262 263 265 267 270 273 276
293 301 306 309 312 314 314 320 329 329 316 316 332 350 354 353 352 350 350 350 349 347 343 329 295 251 219 201 198 201 204 203 197 188 182 181 182 182 183 185 187 187 188 191 195 198 201 203 205 206 207 208 211 215 218 221 224 228 231 233 237 240 242 245 247 247 248 247 248 248 249 250 251 252 254 255 256 258 260 262 266 269 272 275 278
Height
5683 5682 5681 5681 5681 5681 5680 5680 5680 5679 5679 5679 5679 5679 5678 5678 5678 5679 5679 5679 5678 5678 5679 5679 5679 5680 5682 5684 5685 5687 5688 5689 5690 5692 5694 5697 5700 5702 5704 5705 5708 5710 5712 5715 5718 5721 5725 5729 5732 5736 5739 5742 5744 5746 5748 5751 5755 5758 5762 5764 5765 5767 5770 5774 5777 5779 5782 5784 5785 5789 5791 5791 5793 5796 5798 5799 5800 5802 5803 5802 5803 5804 5805 5805 5805
5677 5676 5675 5675 5675 5675 5674 5674 5673 5673 5672 5672 5672 5672 5672 5672 5672 5672 5672 5673 5672 5672 5672 5672 5672 5673 5674 5676 5678 5679 5681 5683 5684 5685 5687 5689 5692 5694 5697 5698 5700 5702 5704 5708 5711 5713 5716 5720 5724 5728 5732 5735 5738 5741 5742 5745 5749 5752 5756 5758 5760 5762 5764 5768 5771 5773 5775 5777 5781 5785 5785 5784 5788 5792 5793 5794 5795 5797 5798 5797 5799 5800 5800 5801 5802
5671 5670 5669 5669 5669 5668 5668 5667 5666 5666 5665 5665 5666 5666 5665 5665 5665 5665 5665 5666 5666 5665 5665 5665 5665 5665 5666 5667 5669 5671 5673 5675 5677 5678 5680 5681 5683 5686 5688 5691 5693 5694 5697 5700 5703 5705 5708 5712 5716 5719 5723 5727 5731 5734 5737 5741 5744 5747 5750 5752 5753 5756 5758 5760 5764 5767 5768 5772 5777 5779 5778 5779 5783 5786 5788 5789 5791 5792 5792 5793 5795 5795 5795 5797 5797
5665 5664 5664 5663 5662 5662 5661 5660 5659 5659 5659 5659 5659 5659 5658 5658 5657 5658 5658 5658 5658 5658 5658 5657 5657 5658 5659 5659 5661 5663 5665 5666 5668 5671 5672 5674 5676 5677 5680 5682 5685 5687 5689 5692 5695 5698 5700 5703 5708 5711 5713 5718 5723 5726 5731 5735 5739 5741 5744 5746 5747 5750 5752 5754 5758 5760 5760 5765 5770 5771 5772 5774 5778 5780 5783 5785 5786 5787 5788 5789 5790 5790 5791 5792 5793
5658 5658 5657 5657 5656 5655 5654 5653 5652 5652 5652 5652 5652 5652 5651 5650 5650 5650 5650 5650 5650 5650 5650 5650 5650 5650 5651 5651 5652 5654 5656 5658 5660 5662 5664 5666 5668 5670 5672 5674 5676 5679 5681 5684 5687 5691 5694 5696 5700 5702 5705 5710 5714 5719 5724 5729 5732 5734 5737 5741 5743 5744 5747 5749 5752 5753 5754 5759 5763 5765 5766 5769 5772 5775 5778 5779 5780 5782 5783 5784 5785 5785 5786 5787 5788
5652 5652 5651 5651 5650 5649 5647 5646 5646 5645 5645 5645 5645 5644 5643 5643 5642 5642 5642 5643 5643 5643 5643 5642 5642 5642 5643 5644 5645 5646 5647 5649 5651 5653 5656 5658 5660 5662 5664 5665 5668 5670 5673 5676 5679 5683 5687 5690 5692 5694 5697 5702 5707 5712 5716 5721 5725 5727 5731 5735 5737 5739 5742 5744 5747 5748 5749 5753 5757 5759 5761 5764 5767 5770 5772 5773 5775 5777 5778 5779 5780 5781 5782 5782 5783
5646 5646 5645 5644 5643 5642 5641 5640 5639 5639 5638 5638 5637 5637 5636 5635 5635 5634 5634 5635 5635 5635 5635 5635 5635 5635 5635 5635 5636 5637 5639 5640 5642 5644 5647 5649 5651 5654 5656 5657 5659 5661 5664 5668 5671 5674 5678 5682 5685 5687 5690 5695 5701 5705 5708 5713 5718 5720 5725 5729 5732 5734 5737 5739 5742 5742 5743 5747 5751 5753 5755 5759 5762 5764 5765 5767 5770 5772 5774 5775 5775 5776 5776 5777 5778
5640 5639 5638 5637 5636 5635 5635 5634 5633 5632 5631 5631 5630 5629 5628 5628 5627 5627 5626 5627 5627 5627 5627 5627 5627 5627 5627 5627 5628 5629 5630 5632 5634 5635 5638 5640 5642 5644 5647 5649 5651 5653 5656 5659 5662 5665 5669 5674 5677 5681 5684 5688 5693 5697 5700 5705 5710 5713 5718 5723 5726 5728 5731 5734 5737 5736 5737 5743 5746 5748 5750 5754 5756 5758 5761 5763 5766 5768 5769 5769 5769 5770 5771 5772 5773
5634 5633 5632 5631 5630 5629 5628 5627 5626 5625 5624 5623 5622 5621 5621 5620 5620 5619 5618 5618 5618 5619 5619 5619 5619 5619 5619 5619 5620 5621 5622 5624 5626 5627 5629 5631 5632 5635 5638 5640 5643 5645 5647 5650 5653 5657 5660 5664 5669 5673 5677 5681 5685 5689 5693 5697 5701 5706 5711 5717 5720 5722 5724 5729 5732 5731 5732 5737 5741 5742 5746 5749 5751 5754 5757 5759 5761 5762 5763 5763 5764 5766 5766 5767 5767
5628 5627 5625 5624 5624 5623 5622 5621 5619 5618 5617 5616 5615 5614 5613 5613 5612 5611 5610 5610 5609 5610 5610 5610 5611 5611 5611 5612 5612 5613 5614 5616 5618 5619 5620 5621 5623 5626 5629 5631 5634 5637 5639 5642 5645 5648 5651 5655 5660 5665 5670 5674 5677 5681 5685 5689 5692 5698 5704 5709 5714 5716 5718 5723 5726 5725 5727 5732 5735 5738 5741 5744 5747 5750 5752 5753 5755 5756 5757 5758 5760 5761 5761 5762 5763
5622 5620 5619 5618 5617 5616 5615 5614 5612 5611 5610 5609 5608 5607 5606 5604 5604 5603 5602 5601 5601 5600 5601 5601 5601 5602 5603 5603 5604 5604 5606 5607 5609 5609 5611 5613 5615 5617 5620 5623 5626 5629 5632 5634 5637 5640 5643 5646 5651 5656 5661 5665 5669 5673 5677 5681 5685 5691 5696 5701 5706 5709 5712 5716 5718 5720 5723 5728 5731 5733 5736 5739 5742 5744 5746 5747 5749 5750 5752 5753 5755 5756 5757 5757 5758
5616 5615 5613 5612 5610 5609 5608 5607 5605 5604 5603 5602 5601 5599 5598 5597 5596 5595 5594 5593 5592 5592 5591 5592 5592 5593 5593 5594 5595 5595 5597 5598 5599 5600 5602 5603 5606 5608 5611 5614 5618 5621 5624 5627 5629 5632 5634 5637 5642 5647 5652 5657 5662 5666 5670 5674 5679 5683 5688 5694 5699 5702 5706 5709 5711 5714 5717 5722 5726 5728 5731 5734 5737 5738 5740 5742 5743 5745 5746 5748 5750 5751 5751 5751 5752
5611 5609 5607 5605 5604 5602 5601 5600 5598 5597 5596 5595 5593 5592 5590 5589 5588 5586 5585 5584 5583 5583 5582 5582 5583 5583 5583 5584 5585 5586 5587 5588 5590 5591 5592 5594 5596 5599 5602 5605 5609 5613 5616 5619 5621 5623 5626 5629 5633 5638 5643 5649 5654 5658 5662 5666 5671 5675 5680 5686 5691 5694 5698 5702 5705 5708 5711 5716 5720 5723 5725 5728 5731 5732 5734 5736 5737 5739 5741 5744 5745 5745 5745 5746 5747
5605 5603 5601 5599 5597 5596 5594 5593 5592 5590 5589 5587 5586 5584 5583 5581 5580 5578 5577 5576 5575 5574 5574 5573 5573 5573 5573 5573 5574 5575 5577 5578 5580 5581 5582 5584 5587 5590 5593 5597 5600 5604 5608 5611 5613 5616 5619 5621 5625 5629 5634 5640 5646 5651 5655 5659 5663 5668 5672 5677 5683 5687 5691 5695 5699 5703 5706 5709 5714 5717 5719 5723 5725 5726 5728 5729 5731 5734 5737 5738 5739 5739 5739 5741 5742
5599 5597 5595 5593 5591 5589 5588 5587 5585 5583 5582 5580 5579 5577 5575 5574 5572 5570 5569 5568 5566 5565 5564 5563 5563 5562 5562 5562 5562 5564 5566 5568 5569 5571 5573 5575 5577 5580 5584 5588 5592 5596 5600 5603 5606 5609 5612 5614 5617 5621 5625 5630 5637 5643 5647 5651 5655 5660 5664 5669 5675 5680 5684 5688 5693 5696 5700 5704 5709 5711 5714 5717 5719 5721 5722 5724 5727 5729 5730 5731 5733 5733 5734 5735 5736
5593 5591 5589 5586 5585 5583 5582 5580 5578 5577 5575 5574 5572 5570 5568 5566 5564 5562 5561 5559 5557 5556 5554 5553 5553 5552 5551 5551 5551 5554 5556 5558 5559 5561 5563 5565 5568 5571 5575 5580 5584 5588 5592 5596 5598 5601 5604 5607 5610 5614 5617 5622 5628 5633 5638 5643 5647 5652 5656 5661 5667 5671 5676 5682 5687 5690 5695 5700 5703 5706 5708 5712 5715 5716 5717 5720 5723 5724 5722 5724 5728 5729 5729 5730 5731
5587 5585 5583 5580 5579 5577 5576 5574 5572 5571 5569 5567 5565 5563 5561 5559 5556 5554 5552 5550 5548 5546 5545 5544 5543 5542 5541 5540 5541 5543 5546 5548 5549 5552 5554 5556 5559 5563 5567 5571 5575 5580 5584 5588 5591 5594 5597 5601 5604 5607 5610 5614 5619 5624 5630 5635 5639 5644 5648 5653 5659 5664 5670 5676 5680 5684 5689 5694 5697 5700 5703 5706 5709 5711 5712 5715 5718 5718 5717 5719 5723 5724 5724 5725 5727
5582 5579 5577 5575 5573 5571 5570 5568 5566 5565 5563 5561 5559 5556 5554 5551 5549 5546 5544 5542 5539 5537 5535 5534 5534 5533 5531 5531 5532 5534 5537 5539 5540 5543 5545 5546 5549 5554 5558 5562 5567 5571 5575 5580 5583 5587 5591 5594 5597 5601 5604 5607 5611 5616 5621 5626 5631 5636 5641 5647 5653 5658 5665 5670 5675 5679 5684 5688 5691 5695 5699 5701 5704 5706 5708 5710 5712 5713 5713 5715 5718 5720 5721 5721 5722
5576 5574 5571 5569 5567 5566 5564 5563 5561 5559 5557 5555 5552 5550 5547 5544 5542 5539 5536 5533 5531 5530 5528 5526 5526 5525 5523 5523 5523 5525 5528 5530 5532 5533 5535 5537 5541 5546 5549 5554 5559 5563 5567 5571 5576 5580 5584 5587 5591 5595 5598 5601 5605 5609 5613 5618 5624 5630 5636 5641 5647 5653 5660 5666 5670 5674 5678 5683 5687 5690 5693 5696 5699 5702 5704 5705 5706 5708 5710 5712 5714 5716 5716 5718 5718
5571 5568 5566 5564 5562 5560 5559 5557 5556 5553 5551 5549 5546 5543 5540 5538 5535 5532 5530 5527 5525 5523 5521 5519 5519 5518 5516 5516 5516 5518 5520 5522 5524 5525 5527 5530 5534 5538 5541 5545 5551 5555 5558 5563 5568 5573 5577 5581 5585 5588 5591 5595 5600 5603 5606 5611 5617 5624 5630 5636 5642 5649 5655 5660 5665 5669 5674 5678 5681 5684 5687 5690 5694 5698 5700 5700 5701 5704 5706 5708 5709 5710 5712 5714 5714
5565 5562 5560 5559 5557 5555 5554 5552 5550 5548 5545 5543 5540 5537 5534 5532 5529 5526 5524 5521 5519 5517 5515 5513 5512 5511 5510 5510 5510 5511 5513 5515 5517 5519 5521 5524 5527 5530 5534 5538 5542 5546 5550 5555 5561 5565 5570 5574 5578 5582 5586 5590 5595 5597 5600 5604 5611 5617 5623 5630 5637 5643 5649 5654 5659 5664 5668 5672 5675 5677 5680 5684 5689 5692 5694 5695 5697 5699 5701 5702 5704 5706 5708 5709 5709
5559 5557 5555 5554 5552 5550 5548 5546 5544 5542 5539 5536 5534 5531 5529 5526 5523 5520 5518 5516 5514 5511 5509 5507 5505 5504 5504 5504 5504 5506 5507 5510 5512 5513 5516 5518 5521 5525 5528 5531 5535 5538 5543 5548 5553 5558 5563 5568 5573 5578 5582 5586 5589 5591 5594 5598 5603 5610 5617 5624 5630 5636 5642 5648 5653 5657 5662 5666 5668 5671 5675 5679 5683 5686 5688 5689 5692 5694 5695 5697 5700 5703 5704 5703 5704
5554 5552 5551 5549 5547 5545 5543 5541 5538 5536 5533 5531 5529 5526 5523 5520 5517 5514 5512 5510 5508 5505 5503 5501 5499 5498 5497 5498 5499 5500 5501 5504 5506 5508 5510 5513 5516 5520 5523 5526 5529 5532 5537 5542 5547 5552 5558 5563 5568 5573 5576 5579 5582 5585 5588 5592 5597 5604 5610 5617 5624 5630 5636 5641 5646 5651 5656 5659 5662 5666 5670 5674 5678 5680 5682 5685 5688 5690 5692 5693 5694 5696 5697 5698 5699
5549 5548 5546 5544 5543 5540 5538 5536 5533 5531 5528 5526 5524 5521 5519 5516 5513 5509 5506 5504 5502 5499 5497 5495 5494 5493 5492 5492 5493 5493 5495 5497 5499 5502 5505 5508 5511 5515 5518 5521 5524 5528 5532 5537 5542 5547 5553 5558 5563 5566 5569 5572 5576 5579 5583 5587 5592 5598 5604 5611 5618 5625 5630 5635 5640 5646 5650 5653 5657 5661 5667 5671 5673 5675 5678 5681 5683 5685 5686 5686 5687 5690 5692 5693 5695
5545 5543 5541 5540 5538 5536 5533 5531 5528 5526 5524 5522 5520 5517 5515 5512 5508 5504 5500 5498 5496 5494 5492 5491 5490 5488 5487 5487 5487 5487 5489 5490 5492 5495 5498 5502 5506 5510 5513 5516 5519 5524 5528 5533 5537 5542 5547 5552 5555 5558 5562 5566 5570 5574 5578 5582 5587 5592 5599 5606 5613 5620 5625 5630 5635 5640 5644 5648 5652 5657 5662 5666 5669 5672 5676 5676 5676 5678 5680 5680 5683 5685 5687 5689 5691
5541 5539 5538 5536 5534 5531 5529 5526 5524 5522 5520 5518 5516 5513 5511 5507 5503 5499 5495 5493 5491 5490 5489 5488 5487 5485 5483 5482 5481 5482 5482 5484 5486 5488 5492 5495 5500 5504 5507 5511 5514 5519 5523 5527 5532 5537 5542 5545 5548 5552 5556 5560 5564 5569 5573 5577 5581 5587 5593 5601 5608 5614 5620 5625 5631 5635 5639 5644 5648 5652 5657 5661 5664 5668 5670 5669 5669 5672 5675 5677 5679 5681 5683 5685 5687
5537 5535 5534 5532 5529 5527 5525 5523 5521 5519 5517 5515 5513 5510 5507 5503 5498 5494 5491 5488 5487 5487 5486 5485 5484 5482 5481 5479 5478 5477 5477 5478 5480 5483 5486 5490 5493 5497 5501 5505 5509 5514 5518 5522 5526 5531 5535 5538 5542 5546 5551 5554 5559 5563 5567 5571 5576 5581 5588 5596 5603 5609 5614 5620 5626 5630 5635 5639 5644 5649 5653 5656 5659 5660 5662 5663 5664 5668 5670 5673 5675 5677 5679 5681 5682
5533 5532 5530 5528 5526 5523 5521 5520 5518 5515 5513 5511 5509 5507 5503 5499 5494 5490 5487 5485 5485 5484 5483 5483 5481 5480 5478 5476 5475 5474 5473 5474 5475 5478 5481 5484 5488 5492 5496 5500 5504 5508 5512 5516 5521 5525 5528 5532 5536 5540 5545 5549 5553 5558 5562 5566 5571 5577 5584 5592 5599 5604 5609 5615 5620 5625 5630 5635 5639 5643 5647 5650 5652 5654 5656 5658 5661 5663 5666 5669 5671 5673 5675 5676 5677
5530 5528 5526 5524 5522 5520 5518 5516 5514 5513 5510 5508 5506 5504 5501 5496 5492 5488 5485 5483 5482 5482 5481 5480 5478 5477 5476 5474 5473 5472 5471 5471 5472 5473 5476 5479 5483 5487 5491 5495 5499 5503 5507 5511 5515 5518 5522 5526 5531 5535 5540 5544 5549 5554 5558 5562 5567 5573 5580 5588 5594 5600 5605 5611 5616 5621 5625 5630 5634 5637 5641 5644 5646 5648 5651 5653 5657 5660 5662 5665 5667 5669 5670 5671 5673
5527 5525 5523 5521 5519 5517 5515 5514 5512 5510 5508 5506 5503 5500 5497 5493 5489 5485 5483 5481 5480 5480 5478 5477 5475 5474 5474 5473 5472 5471 5470 5469 5469 5470 5472 5475 5479 5483 5487 5490 5494 5499 5503 5506 5510 5514 5518 5522 5527 5532 5536 5541 5545 5550 5554 5559 5564 5571 5578 5585 5591 5596 5602 5607 5612 5616 5620 5624 5628 5632 5636 5639 5641 5643 5646 5650 5653 5656 5659 5661 5663 5664 5666 5667 5668
5524 5522 5520 5518 5516 5514 5513 5511 5509 5507 5505 5503 5501 5498 5494 5490 5486 5483 5481 5480 5478 5477 5476 5474 5473 5472 5471 5471 5470 5470 5469 5469 5468 5469 5470 5472 5476 5479 5483 5487 5491 5495 5499 5503 5506 5510 5515 5519 5524 5529 5534 5538 5542 5547 5551 5556 5562 5569 5576 5582 5587 5593 5598 5603 5608 5612 5616 5620 5624 5628 5632 5634 5636 5638 5642 5646 5650 5652 5655 5657 5658 5660 5661 5663 5663
5522 5520 5517 5515 5513 5512 5510 5508 5507 5505 5503 5501 5498 5496 5493 5489 5484 5481 5479 5478 5476 5475 5474 5473 5471 5470 5469 5469 5469 5469 5469 5469 5468 5469 5470 5471 5474 5477 5481 5485 5489 5493 5496 5500 5504 5508 5513 5517 5522 5527 5531 5535 5539 5544 5548 5554 5560 5567 5573 5579 5585 5591 5596 5600 5604 5608 5611 5616 5621 5625 5627 5628 5631 5635 5639 5643 5646 5649 5651 5652 5654 5655 5657 5657 5658
5519 5517 5515 5512 5510 5509 5507 5506 5504 5503 5501 5498 5496 5494 5491 5488 5484 5480 5477 5476 5475 5474 5473 5472 5470 5468 5467 5467 5467 5468 5468 5469 5469 5468 5469 5471 5473 5477 5481 5484 5488 5491 5495 5499 5503 5507 5512 5516 5521 5525 5529 5534 5538 5542 5546 5552 5558 5565 5571 5577 5582 5588 5593 5597 5600 5604 5608 5613 5617 5619 5621 5623 5628 5632 5636 5640 5642 5645 5646 5648 5649 5651 5652 5652 5654
5517 5515 5512 5510 5508 5506 5505 5504 5502 5501 5499 5497 5494 5492 5490 5487 5483 5479 5476 5475 5474 5473 5472 5471 5470 5468 5467 5466 5466 5467 5467 5468 5468 5468 5469 5471 5474 5477 5481 5484 5488 5491 5495 5498 5503 5507 5511 5515 5519 5523 5528 5533 5538 5541 5546 5552 5558 5563 5569 5574 5579 5585 5590 5593 5597 5601 5604 5608 5611 5613 5616 5621 5626 5630 5633 5636 5639 5640 5642 5644 5645 5646 5647 5648 5649
5514 5512 5511 5508 5506 5503 5502 5501 5500 5499 5497 5495 5493 5491 5489 5486 5482 5478 5475 5474 5472 5472 5471 5471 5470 5469 5468 5466 5465 5466 5466 5467 5468 5468 5469 5471 5474 5477 5481 5484 5487 5491 5495 5499 5503 5507 5511 5515 5519 5523 5527 5531 5536 5541 5546 5551 5557 5562 5567 5571 5577 5582 5587 5590 5593 5596 5600 5603 5607 5611 5615 5620 5624 5627 5630 5632 5634 5636 5638 5639 5640 5642 5643 5644 5645
5512 5510 5509 5507 5504 5501 5500 5498 5498 5497 5495 5494 5492 5490 5488 5485 5482 5478 5475 5473 5472 5471 5471 5470 5470 5470 5469 5467 5466 5466 5466 5467 5467 5469 5470 5472 5474 5477 5481 5484 5488 5492 5496 5500 5504 5507 5511 5515 5519 5522 5526 5531 5536 5541 5546 5551 5555 5559 5564 5568 5573 5578 5582 5586 5589 5593 5597 5601 5606 5610 5614 5618 5621 5623 5626 5628 5630 5632 5634 5635 5636 5637 5638 5640 5641
5510 5508 5507 5505 5503 5500 5498 5496 5496 5495 5494 5492 5491 5489 5487 5485 5482 5479 5476 5473 5471 5471 5470 5470 5470 5470 5470 5468 5467 5467 5467 5468 5469 5470 5471 5473 5475 5478 5481 5485 5489 5493 5497 5501 5504 5508 5511 5515 5519 5522 5526 5531 5536 5540 5545 5550 5554 5558 5561 5565 5570 5575 5579 5583 5588 5592 5596 5601 5605 5609 5612 5614 5617 5619 5622 5624 5626 5628 5630 5631 5632 5633 5634 5635 5636
5508 5507 5505 5503 5501 5499 5497 5495 5494 5493 5492 5491 5490 5488 5486 5485 5483 5480 5477 5474 5472 5471 5470 5470 5470 5471 5471 5470 5469 5469 5470 5470 5471 5472 5474 5475 5477 5480 5483 5487 5491 5494 5498 5502 5505 5509 5513 5516 5520 5524 5528 5531 5535 5540 5545 5549 5553 5557 5560 5564 5568 5572 5577 5581 5586 5591 5595 5599 5603 5605 5608 5610 5613 5616 5618 5620 5622 5624 5625 5626 5627 5629 5630 5631 5631
5506 5505 5504 5502 5501 5498 5496 5494 5493 5492 5491 5490 5489 5487 5486 5484 5483 5481 5478 5475 5473 5472 5471 5471 5471 5471 5471 5471 5471 5471 5472 5473 5474 5475 5476 5479 5481 5483 5486 5489 5492 5495 5499 5503 5507 5511 5514 5518 5521 5525 5528 5531 5535 5539 5544 5548 5552 5556 5560 5564 5568 5572 5576 5580 5585 5589 5593 5596 5599 5601 5604 5607 5610 5612 5615 5617 5619 5620 5621 5622 5624 5625 5626 5626 5626
5505 5504 5503 5501 5500 5498 5496 5493 5492 5491 5490 5489 5488 5487 5486 5484 5483 5481 5479 5477 5475 5473 5472 5472 5472 5472 5472 5472 5472 5472 5473 5475 5476 5477 5478 5481 5483 5485 5488 5491 5494 5496 5499 5503 5508 5511 5515 5519 5522 5525 5528 5531 5535 5539 5543 5547 5551 5555 5560 5564 5568 5571 5575 5579 5584 5587 5591 5593 5596 5599 5602 5604 5607 5609 5611 5613 5615 5616 5617 5619 5620 5621 5621 5622 5622
5503 5502 5502 5500 5499 5497 5495 5493 5491 5490 5489 5488 5487 5486 5485 5484 5483 5482 5480 5479 5477 5475 5473 5473 5473 5474 5473 5473 5473 5473 5474 5476 5478 5479 5480 5482 5485 5487 5490 5494 5496 5498 5501 5504 5508 5511 5514 5517 5521 5524 5528 5532 5535 5539 5543 5547 5551 5555 5559 5563 5566 5570 5574 5578 5582 5586 5589 5591 5594 5596 5599 5601 5603 5605 5607 5609 5610 5612 5613 5615 5616 5616 5617 5618 5618
5502 5501 5501 5499 5498 5496 5495 5492 5491 5490 5489 5488 5487 5486 5485 5484 5483 5482 5481 5480 5479 5477 5476 5474 5474 5475 5475 5475 5474 5474 5475 5477 5479 5481 5482 5484 5487 5489 5492 5496 5498 5501 5503 5506 5509 5512 5514 5516 5519 5523 5528 5532 5535 5539 5543 5547 5550 5554 5558 5562 5565 5569 5574 5578 5581 5584 5587 5589 5591 5593 5595 5598 5600 5602 5604 5605 5606 5608 5609 5611 5611 5612 5613 5613 5614
5501 5500 5499 5499 5497 5496 5494 5492 5491 5490 5489 5488 5487 5486 5485 5484 5484 5483 5482 5481 5479 5479 5478 5476 5476 5475 5476 5476 5476 5476 5477 5478 5480 5483 5484 5486 5489 5491 5494 5497 5500 5502 5504 5507 5510 5513 5515 5517 5519 5523 5527 5531 5535 5539 5543 5547 5551 5554 5558 5562 5565 5569 5573 5577 5580 5582 5584 5586 5589 5591 5593 5595 5596 5598 5600 5601 5603 5604 5605 5606 5607 5608 5608 5609 5609
5499 5499 5498 5498 5497 5496 5494 5492 5491 5490 5489 5488 5487 5486 5485 5484 5484 5483 5482 5482 5480 5480 5479 5478 5478 5477 5477 5477 5478 5479 5480 5481 5482 5484 5486 5488 5490 5492 5495 5497 5500 5503 5506 5508 5511 5514 5516 5518 5521 5523 5526 5530 5534 5538 5542 5546 5550 5554 5558 5561 5565 5568 5572 5575 5577 5579 5581 5583 5585 5587 5589 5591 5593 5594 5596 5597 5599 5600 5601 5602 5603 5603 5604 5604 5603
5498 5498 5497 5497 5496 5496 5494 5493 5491 5490 5489 5488 5487 5486 5485 5485 5484 5483 5483 5482 5482 5481 5480 5479 5479 5479 5478 5478 5479 5480 5482 5483 5484 5486 5487 5489 5491 5493 5495 5498 5501 5503 5506 5509 5511 5513 5516 5518 5521 5523 5526 5530 5534 5538 5542 5546 5550 5553 5557 5560 5564 5567 5570 5572 5574 5576 5578 5579 5581 5583 5585 5586 5588 5590 5592 5593 5594 5596 5597 5598 5598 5598 5599 5599 5598
5498 5497 5497 5496 5496 5495 5494 5493 5492 5490 5489 5489 5488 5486 5485 5485 5484 5483 5483 5483 5482 5482 5481 5481 5480 5480 5480 5480 5480 5481 5483 5484 5486 5487 5489 5491 5492 5494 5496 5498 5501 5503 5506 5508 5510 5513 5516 5518 5520 5523 5526 5530 5534 5537 5540 5544 5547 5551 5554 5558 5561 5564 5566 5568 5570 5572 5574 5576 5577 5579 5580 5582 5584 5586 5587 5589 5590 5592 5593 5593 5594 5594 5594 5594 5593
5497 5497 5496 5496 5495 5495 5494 5493 5492 5491 5490 5489 5488 5487 5486 5485 5484 5484 5483 5483 5483 5482 5482 5482 5482 5482 5482 5482 5482 5483 5484 5485 5487 5489 5490 5492 5493 5495 5496 5498 5501 5503 5506 5508 5510 5512 5515 5518 5520 5523 5526 5529 5532 5535 5538 5542 5545 5549 5552 5555 5558 5561 5563 5565 5566 5568 5570 5572 5574 5575 5577 5578 5580 5582 5584 5585 5586 5587 5588 5589 5589 5589 5589 5589 5589
5497 5496 5496 5495 5495 5494 5494 5493 5492 5491 5490 5489 5489 5488 5487 5486 5485 5484 5483 5483 5483 5483 5483 5483 5483 5483 5484 5484 5484 5484 5485 5486 5488 5489 5491 5492 5494 5495 5496 5498 5501 5503 5505 5507 5509 5512 5514 5517 5520 5523 5526 5529 5531 5534 5537 5540 5544 5547 5550 5552 5555 5557 5559 5561 5563 5565 5567 5569 5570 5572 5574 5575 5577 5578 5580 5581 5582 5583 5584 5584 5584 5584 5584 5584 5584
5496 5496 5495 5495 5494 5494 5493 5493 5492 5491 5491 5490 5489 5489 5487 5486 5485 5485 5484 5483 5483 5483 5483 5483 5483 5484 5484 5485 5485 5486 5486 5487 5488 5489 5491 5492 5493 5494 5496 5498 5500 5502 5504 5506 5508 5511 5514 5516 5519 5522 5525 5528 5530 5533 5536 5539 5541 5544 5547 5549 5551 5554 5556 5558 5560 5562 5564 5565 5567 5568 5570 5572 5573 5574 5575 5576 5577 5578 5579 5579 5579 5580 5579 5579 5579
5495 5495 5495 5494 5494 5494 5493 5492 5492 5491 5491 5490 5490 5489 5488 5487 5486 5485 5485 5484 5483 5483 5483 5483 5484 5484 5484 5485 5485 5486 5487 5488 5489 5490 5491 5492 5493 5494 5495 5497 5499 5501 5503 5505 5508 5510 5513 5516 5518 5521 5523 5526 5529 5531 5534 5536 5539 5541 5544 5546 5548 5550 5553 5555 5557 5558 5560 5561 5563 5565 5566 5567 5569 5570 5571 5572 5573 5574 5574 5574 5575 5575 5574 5574 5574
5494 5494 5494 5494 5493 5493 5493 5492 5492 5491 5491 5490 5490 5490 5489 5488 5487 5486 5485 5485 5484 5484 5484 5484 5484 5484 5484 5484 5485 5486 5486 5488 5489 5490 5491 5492 5492 5494 5495 5496 5498 5500 5502 5504 5506 5509 5512 5514 5517 5519 5522 5524 5526 5529 5531 5534 5536 5538 5540 5543 5545 5547 5549 5551 5553 5554 5556 5557 5559 5561 5562 5563 5564 5565 5566 5567 5568 5569 5569 5569 5570 5570 5570 5570 5570